This demonstration page uses our WeatherBlox Daily Observations layout. Learn more.

Left ArrowRight Arrow

40.92945, -100.16068

Hourly Observations for November 7, 2021

Temp ( °F °C ) Dew Point ( °F °C ) Humidity (%) Winds ( mph kmh ) Pressure ( in mb ) Visibility ( mi km ) Precip ( " mm )
12:15 am 00:15 Clear 57 13.9 46 7.7 66 66 S 9 15 29.91 1013 10 16 0.00 0.00
12:35 am 00:35 Clear 57 13.7 46 7.7 67 67 S 10 17 29.90 1012 10 16 0.00 0.00
12:55 am 00:55 Clear 57 14 46 7.7 66 66 S 13 20 29.88 1012 10 16 0.00 0.00
1:15 am 01:15 Clear 57 13.8 46 7.7 67 67 S 10 17 29.89 1012 10 16 0.00 0.00
1:35 am 01:35 Clear 56 13.1 46 7.7 70 70 S 9 15 29.88 1012 10 16 0.00 0.00
1:55 am 01:55 Clear 55 12.9 46 7.6 70 70 S 6 9 29.88 1012 10 16 0.00 0.00
1:15 am 01:15 Clear 54 12.1 46 7.5 74 74 ESE 3 6 29.88 1012 10 16 0.00 0.00
1:35 am 01:35 Clear 53 11.6 46 7.6 77 77 SE 6 9 29.89 1012 10 16 0.00 0.00
1:55 am 01:55 Clear 52 11.1 46 7.5 79 79 S 8 13 29.89 1012 10 16 0.00 0.00
2:15 am 02:15 Clear 51 10.5 45 7.3 81 81 ESE 3 6 29.90 1012 10 16 0.00 0.00
2:35 am 02:35 Clear 51 10.8 45 7.4 80 80 ESE 3 6 29.88 1012 10 16 0.00 0.00
2:55 am 02:55 Clear 52 11.1 45 7.2 77 77 SSE 6 9 29.87 1012 10 16 0.00 0.00
3:15 am 03:15 Clear 50 10.1 45 7.1 82 82 Calm 29.89 1012 10 16 0.00 0.00
3:35 am 03:35 Clear 50 9.8 44 6.7 81 81 SE 7 11 29.87 1012 10 16 0.00 0.00
3:55 am 03:55 Clear 49 9.5 44 6.8 83 83 SE 5 7 29.88 1012 10 16 0.00 0.00
4:15 am 04:15 Clear 50 9.8 44 6.7 81 81 SSE 10 17 29.85 1011 10 16 0.00 0.00
4:35 am 04:35 Clear 47 8.3 43 6.3 87 87 SSE 7 11 29.87 1011 10 16 0.00 0.00
4:55 am 04:55 Clear 48 8.9 44 6.5 85 85 SSE 7 11 29.86 1011 10 16 0.00 0.00
5:15 am 05:15 Clear 47 8.3 44 6.4 88 88 SSE 8 13 29.86 1011 10 16 0.00 0.00
5:35 am 05:35 Clear 47 8.2 43 6.2 87 87 SE 5 7 29.87 1011 10 16 0.00 0.00
5:55 am 05:55 Clear 42 5.7 39 4.1 90 90 N 3 6 29.90 1013 10 16 0.00 0.00
6:15 am 06:15 Clear 40 4.3 38 3.6 95 95 Calm 29.91 1013 10 16 0.00 0.00
6:35 am 06:35 Clear 40 4.2 39 3.7 97 97 ESE 3 6 29.91 1013 10 16 0.00 0.00
6:55 am 06:55 Clear 40 4.2 38 3.5 95 95 S 3 6 29.91 1013 10 16 0.00 0.00
7:15 am 07:15 Clear 37 3 36 2.4 96 96 Calm 29.93 1013 10 16 0.00 0.00
7:35 am 07:35 Sunny 37 3 37 2.5 97 97 N 3 6 29.95 1014 7 11 0.00 0.00
7:55 am 07:55 Sunny 38 3.5 38 3.1 97 97 Calm 29.94 1014 7 11 0.00 0.00
8:15 am 08:15 Sunny 40 4.5 39 4 97 97 Calm 29.93 1014 7 11 0.00 0.00
8:35 am 08:35 Sunny 43 5.9 42 5.3 96 96 Calm 29.92 1013 10 16 0.00 0.00
8:55 am 08:55 Sunny 45 7.4 44 6.5 94 94 Calm 29.92 1013 10 16 0.00 0.00
9:15 am 09:15 Sunny 48 8.9 45 7.1 89 89 WSW 3 6 29.90 1013 10 16 0.00 0.00
9:35 am 09:35 Sunny 49 9.7 45 7 83 83 WSW 3 6 29.88 1012 10 16 0.00 0.00
9:55 am 09:55 Sunny 51 10.5 45 7.3 81 81 W 6 9 29.89 1012 10 16 0.00 0.00
10:15 am 10:15 Sunny 53 11.5 45 7.3 76 76 W 7 11 29.88 1012 10 16 0.00 0.00
10:35 am 10:35 Sunny 54 12.4 46 7.7 73 73 W 9 15 29.87 1011 10 16 0.00 0.00
10:55 am 10:55 Sunny 56 13.4 46 7.8 69 69 W 5 7 29.86 1011 10 16 0.00 0.00
11:15 am 11:15 Sunny 59 14.9 47 8.3 65 65 W 5 7 29.85 1011 10 16 0.00 0.00
11:35 am 11:35 Sunny 61 16.2 46 7.7 57 57 WNW 7 11 29.83 1010 10 16 0.00 0.00
11:55 am 11:55 Sunny 64 17.5 46 8 54 54 WNW 8 13 29.80 1009 10 16 0.00 0.00
12:15 pm 12:15 Sunny 66 18.7 46 7.9 50 50 W 6 9 29.79 1009 10 16 0.00 0.00
12:35 pm 12:35 Sunny 68 19.9 46 8 46 46 W 7 11 29.77 1008 10 16 0.00 0.00
12:55 pm 12:55 Sunny 70 20.9 46 8 44 44 WNW 10 17 29.76 1008 10 16 0.00 0.00
1:15 pm 13:15 Sunny 71 21.6 46 8 42 42 WNW 8 13 29.75 1007 10 16 0.00 0.00
1:35 pm 13:35 Sunny 74 23.3 46 7.5 36 36 NW 5 7 29.73 1007 10 16 0.00 0.00
1:55 pm 13:55 Sunny 75 24 46 7.6 35 35 Calm 29.72 1006 10 16 0.00 0.00
2:15 pm 14:15 Sunny 78 25.6 43 5.9 28 28 NW 8 13 29.71 1006 10 16 0.00 0.00
2:35 pm 14:35 Sunny 80 26.5 33 0.8 19 19 N 12 19 29.70 1006 10 16 0.00 0.00
2:55 pm 14:55 Sunny 80 26.5 35 1.7 20 20 N 9 15 29.70 1006 10 16 0.00 0.00
3:15 pm 15:15 Sunny 79 26.2 37 2.8 22 22 NNE 9 15 29.70 1006 10 16 0.00 0.00
3:35 pm 15:35 Sunny 79 26.1 37 2.8 22 22 NE 3 6 29.71 1006 10 16 0.00 0.00
3:55 pm 15:55 Sunny 78 25.6 42 5.7 28 28 Calm 29.73 1007 10 16 0.00 0.00
4:15 pm 16:15 Sunny 77 24.8 41 4.9 28 28 ENE 7 11 29.73 1007 10 16 0.00 0.00
4:35 pm 16:35 Sunny 74 23.5 43 6.2 33 33 E 3 6 29.75 1008 10 16 0.00 0.00
4:55 pm 16:55 Sunny 71 21.5 44 6.7 38 38 E 7 11 29.77 1008 10 16 0.00 0.00
5:15 pm 17:15 Sunny 70 20.9 42 5.3 36 36 ESE 6 9 29.78 1009 10 16 0.00 0.00
5:35 pm 17:35 Clear 68 20.2 45 7.4 44 44 ESE 6 9 29.80 1009 10 16 0.00 0.00
5:55 pm 17:55 Clear 64 17.8 45 7.1 50 50 Calm 29.84 1011 10 16 0.00 0.00
6:15 pm 18:15 Clear 56 13.6 43 5.9 60 60 Calm 29.88 1012 10 16 0.00 0.00
6:35 pm 18:35 Clear 58 14.3 44 6.8 61 61 SSE 5 7 29.88 1012 10 16 0.00 0.00
6:55 pm 18:55 Clear 55 12.9 45 7.2 69 69 Calm 29.89 1012 10 16 0.00 0.00
7:15 pm 19:15 Clear 51 10.8 44 6.5 75 75 Calm 29.92 1013 7 11 0.00 0.00
7:35 pm 19:35 Clear 49 9.3 43 6.3 82 82 ESE 3 6 29.94 1014 10 16 0.00 0.00
7:55 pm 19:55 Clear 49 9.3 43 6.2 81 81 Calm 29.94 1014 10 16 0.00 0.00
8:15 pm 20:15 Clear 47 8.6 43 5.9 83 83 Calm 29.95 1014 10 16 0.00 0.00
8:35 pm 20:35 Hazy 47 8.6 43 6 84 84 Calm 29.95 1014 3 4 0.00 0.00
8:55 pm 20:55 Clear 47 8.1 43 5.9 86 86 Calm 29.96 1015 10 16 0.00 0.00
9:15 pm 21:15 Clear 45 7 41 5.1 88 88 Calm 29.98 1015 10 16 0.00 0.00
9:35 pm 21:35 Clear 43 6.1 39 4 87 87 Calm 29.99 1015 10 16 0.00 0.00
9:55 pm 21:55 Clear 42 5.5 39 4.1 91 91 NNE 3 6 30.00 1016 10 16 0.00 0.00
10:15 pm 22:15 Clear 41 5.2 39 3.8 91 91 Calm 30.01 1016 10 16 0.00 0.00
10:35 pm 22:35 Clear 41 5.2 38 3.5 89 89 N 15 24 30.02 1016 10 16 0.00 0.00
10:55 pm 22:55 Clear 48 9.1 41 5.2 77 77 NNE 6 9 29.98 1015 10 16 0.00 0.00
11:15 pm 23:15 Clear 47 8.3 41 5 80 80 N 9 15 29.99 1015 10 16 0.00 0.00
11:35 pm 23:35 Clear 49 9.5 39 4.1 69 69 NNE 9 15 29.98 1015 10 16 0.00 0.00
11:55 pm 23:55 Clear 49 9.7 39 4 68 68 NNE 10 17 29.98 1015 10 16 0.00 0.00

Powered by AerisWeather